Regional Weather Roundup
Issued by NWS

Home | Current Version | Previous Version | Graphics & Text | Print | Product List | Glossary On
Versions: 1 2 3 4 5 6 7 8 9 10 11 12 13 14 15 16 17 18 19 20 21 22 23 24 25 26 27 28 29 30 31 32 33 34 35 36 37 38 39 40 41 42 43 44 45 46 47 48 49 50
000
ASUS45 KCYS 201910
RWRWY

WYOMING REGIONAL WEATHER ROUNDUP
NATIONAL WEATHER SERVICE CHEYENNE WY
1200 PM MST TUE FEB 20 2018

NOTE:  "FAIR" INDICATES FEW OR NO CLOUDS BELOW 12,000 FEET
WITH NO SIGNIFICANT WEATHER AND/OR OBSTRUCTIONS TO VISIBILITY.

WYZ001-202000-
YELLOWSTONE NATIONAL PARK

CITY           SKY/WX    TMP DP  RH WIND       PRES   REMARKS
LK YELLOWSTONE   N/A    -13 -17  82 CALM      29.79S
W YELLOWSTONE  NOT AVBL

$$
WYZ002>013-054>058-071-098>099-202000-
NORTHERN WYOMING

CITY           SKY/WX    TMP DP  RH WIND       PRES   REMARKS
JACKSON        CLOUDY    12   0  58 S12       29.87S WCI  -2
CODY           FAIR      17  -9  31 CALM      29.95S
GREYBULL       NOT AVBL
WORLAND        FAIR      -1  -9  68 CALM      30.04F
SHERIDAN       PTSUNNY    5  -9  52 CALM      30.02S
BUFFALO        FAIR       5  -7  57 S3        29.94S
GILLETTE       FAIR      -1  -8  72 SW13      30.00S WCI -19
HULETT         FAIR       3  -8  60 MISG      30.01S
NEWCASTLE      FAIR       1  -8  66 W6        30.04S WCI -10

$$
WYZ014>020-022>026-101>103-202000-
CENTRAL WYOMING

CITY           SKY/WX    TMP DP  RH WIND       PRES   REMARKS
BIG PINEY      PTSUNNY    3  -4  72 SE6       29.87R WCI  -8
PINEDALE       FAIR       3  -4  72 CALM      29.87S
DUBOIS           N/A    N/A N/A N/A MISG        N/A
LANDER         FAIR      -1  -7  75 SE3       29.90S
RIVERTON       FAIR      -2 -11  65 VRB3      29.91F
CASPER         FAIR       7  -2  66 SW21      29.92S WCI -13
DOUGLAS        FAIR      -6 -11  79 SE8       29.98R WCI -21

$$
WYZ021-027>030-104>119-202000-
SOUTHERN WYOMING

CITY           SKY/WX    TMP DP  RH WIND       PRES   REMARKS
EVANSTON       LGT SNOW   9   4  80 W15       29.88R WCI  -8
ROCK SPRINGS   NOT AVBL
DIXON          CLOUDY    10   1  66 CALM      29.96S HAZE
RAWLINS        NOT AVBL
SARATOGA       FAIR      12   1  62 W13       29.87S WCI  -3
LARAMIE        FAIR       0  -7  72 N6        29.80R WCI -12
CHEYENNE       FAIR      11   4  73 W9        29.86S WCI  -2
TORRINGTON     FAIR       7  -4  60 NW5       30.05R WCI  -2
PINE BLUFFS    FAIR       5  -6  61 S7        29.99S WCI  -7

$$



USA.gov is the U.S. government's official web portal to all federal, state and local government web resources and services.